GW5201 Weather Reports


time (UTC)temp
C
wind
direction
speed
KPH
gust
KPH
rain 1hr
cm
rain 24hr
cm
rain mn
cm
humidity
%
barometer
mb
20260510180003 25 0 0.0 0.0 0.00 0.00 0.00 52 1013.5
20260510175403 25 0 0.0 0.0 0.00 0.00 0.00 48 1013.5
20260510174503 26 0 0.0 0.0 0.00 0.00 0.00 51 1013.5
20260510173603 26 0 0.0 0.0 0.00 0.00 0.00 50 1013.4
20260510172703 26 0 0.0 0.0 0.00 0.00 0.00 47 1013.4
20260510171803 26 0 0.0 0.0 0.00 0.00 0.00 51 1013.4
20260510170903 26 0 0.0 0.0 0.00 0.00 0.00 50 1013.4
20260510170003 25 0 0.0 0.0 0.00 0.00 0.00 50 1013.4
20260510165403 25 0 0.0 0.0 0.00 0.00 0.00 51 1013.4
20260510164717 25 0 0.0 0.0 0.00 0.00 0.00 52 1013.3
20260510163603 25 0 0.0 0.0 0.00 0.00 0.00 55 1013.3
20260510162915 25 0 0.0 0.0 0.00 0.00 0.00 52 1013.4
20260510161803 25 0 0.0 0.0 0.00 0.00 0.00 54 1013.4
20260510161118 24 0 0.0 0.0 0.00 0.00 0.00 54 1013.5
20260510160003 24 0 0.0 0.0 0.00 0.00 0.00 55 1013.4
20260510155403 24 0 0.0 0.0 0.00 0.00 0.00 55 1013.4
20260510154503 23 0 0.0 0.0 0.00 0.00 0.00 55 1013.5
20260510153603 23 0 0.0 0.0 0.00 0.00 0.00 57 1013.5
20260510152703 23 0 0.0 0.0 0.00 0.00 0.00 60 1013.7
20260510151803 23 0 0.0 0.0 0.00 0.00 0.00 58 1013.7
20260510150903 23 0 0.0 0.0 0.00 0.00 0.00 59 1013.6
20260510150217 22 0 0.0 0.0 0.00 0.00 0.00 61 1013.4
20260510145617 22 0 0.0 0.0 0.00 0.00 0.00 62 1013.5
20260510144503 21 0 0.0 0.0 0.00 0.00 0.00 64 1013.5
20260510143603 21 0 0.0 0.0 0.00 0.00 0.00 69 1013.7
20260510142703 20 0 0.0 0.0 0.00 0.00 0.00 71 1013.6
20260510142018 20 0 0.0 0.0 0.00 0.00 0.00 71 1013.7
20260510140903 20 0 0.0 0.0 0.00 0.00 0.00 76 1013.7
20260510140003 18 0 0.0 0.0 0.00 0.00 0.00 74 1013.7
20260510135403 18 0 0.0 0.0 0.00 0.00 0.00 77 1013.6
20260510134503 18 0 0.0 0.0 0.00 0.00 0.00 77 1013.7
20260510133819 17 0 0.0 0.0 0.00 0.00 0.00 80 1013.8
20260510132703 17 0 0.0 0.0 0.00 0.00 0.00 80 1013.6
20260510131803 16 0 0.0 0.0 0.00 0.00 0.00 82 1013.5
20260510130903 15 0 0.0 0.0 0.00 0.00 0.00 87 1013.7
20260510130003 15 0 0.0 0.0 0.00 0.00 0.00 89 1013.7
20260510125616 15 0 0.0 0.0 0.00 0.00 0.00 91 1013.8
20260510124503 13 0 0.0 0.0 0.00 0.00 0.00 94 1013.7
20260510123603 12 0 0.0 0.0 0.00 0.00 0.00 95 1013.7
20260510122703 12 0 0.0 0.0 0.00 0.00 0.00 95 1013.6
20260510121803 12 0 0.0 0.0 0.00 0.00 0.00 96 1013.5
20260510120903 12 0 0.0 0.0 0.00 0.00 0.00 96 1013.3
20260510120003 12 0 0.0 0.0 0.00 0.00 0.00 96 1013.2
20260510115403 11 0 0.0 0.0 0.00 0.00 0.00 96 1013.2
20260510114503 11 0 0.0 0.0 0.00 0.00 0.00 96 1013.1
20260510113603 11 0 0.0 0.0 0.00 0.00 0.00 96 1012.9
20260510112703 11 0 0.0 0.0 0.00 0.00 0.00 96 1012.9
20260510111803 11 0 0.0 0.0 0.00 0.00 0.00 96 1012.8
20260510110903 10 0 0.0 0.0 0.00 0.00 0.00 96 1012.8
20260510110003 10 0 0.0 0.0 0.00 0.00 0.00 96 1012.8
20260510105403 10 0 0.0 0.0 0.00 0.00 0.00 96 1012.6
20260510104503 10 0 0.0 0.0 0.00 0.00 0.00 96 1012.5
20260510103603 10 0 0.0 0.0 0.00 0.00 0.00 96 1012.5
20260510102703 10 0 0.0 0.0 0.00 0.00 0.00 96 1012.2
20260510102017 10 0 0.0 0.0 0.00 0.00 0.00 96 1012.1
20260510100903 10 0 0.0 0.0 0.00 0.00 0.00 96 1012.3
20260510100003 10 0 0.0 0.0 0.00 0.00 0.00 96 1012.0
20260510095403 10 0 0.0 0.0 0.00 0.00 0.00 96 1012.0
20260510094503 10 0 0.0 0.0 0.00 0.00 0.00 96 1012.1
20260510093603 9 0 0.0 0.0 0.00 0.00 0.00 96 1011.8
20260510092703 9 0 0.0 0.0 0.00 0.00 0.00 96 1011.8
20260510091803 9 0 0.0 0.0 0.00 0.00 0.00 96 1011.9
20260510090903 9 0 0.0 0.0 0.00 0.00 0.00 96 1012.1
20260510090003 9 0 0.0 0.0 0.00 0.00 0.00 96 1012.0
20260510085403 9 0 0.0 0.0 0.00 0.00 0.00 97 1012.1
20260510084503 9 0 0.0 0.0 0.00 0.00 0.00 97 1012.3
20260510083603 8 0 0.0 0.0 0.00 0.00 0.00 96 1011.9
20260510082703 7 0 0.0 0.0 0.00 0.00 0.00 95 1011.5
20260510081803 7 0 0.0 0.0 0.00 0.00 0.00 95 1011.3
20260510081119 7 0 0.0 0.0 0.00 0.00 0.00 95 1011.3
20260510080219 7 0 0.0 0.0 0.00 0.00 0.00 95 1011.3
20260510075403 8 0 0.0 0.0 0.00 0.00 0.00 96 1011.3
20260510074717 7 0 0.0 0.0 0.00 0.00 0.00 95 1011.3
20260510073603 7 0 0.0 0.0 0.00 0.00 0.00 95 1011.3
20260510072703 8 0 0.0 0.0 0.00 0.00 0.00 95 1011.1
20260510071803 7 0 0.0 0.0 0.00 0.00 0.00 95 1011.0
20260510070903 8 0 0.0 0.0 0.00 0.00 0.00 95 1011.0
20260510070003 7 0 0.0 0.0 0.00 0.00 0.00 95 1010.8
20260510065403 7 0 0.0 0.0 0.00 0.00 0.00 95 1010.7
20260510064503 8 0 0.0 0.0 0.00 0.00 0.00 95 1010.8
20260510063816 8 0 0.0 0.0 0.00 0.00 0.00 95 1010.8
20260510062703 8 0 0.0 0.0 0.00 0.00 0.00 95 1011.0
20260510061803 8 0 0.0 0.0 0.00 0.00 0.00 95 1011.0
20260510060903 8 0 0.0 0.0 0.00 0.00 0.00 94 1011.1
20260510060003 8 0 0.0 0.0 0.00 0.00 0.00 94 1010.9
20260510055403 8 0 0.0 0.0 0.00 0.00 0.00 94 1011.0
20260510054503 8 0 0.0 0.0 0.00 0.00 0.00 94 1011.2
20260510053603 8 0 0.0 0.0 0.00 0.00 0.00 94 1011.2
20260510052703 8 0 0.0 0.0 0.00 0.00 0.00 94 1011.3
20260510051803 8 0 0.0 0.0 0.00 0.00 0.00 94 1011.4
20260510051118 8 0 0.0 0.0 0.00 0.00 0.00 95 1011.4
20260510050217 8 0 0.0 0.0 0.00 0.00 0.00 94 1011.5
20260510045403 8 0 0.0 0.0 0.00 0.00 0.00 94 1011.4
20260510044503 8 0 0.0 0.0 0.00 0.00 0.00 94 1011.6
20260510043603 9 0 0.0 0.0 0.00 0.00 0.00 94 1011.5
20260510042703 9 0 0.0 0.0 0.00 0.00 0.00 94 1011.6
20260510041803 9 0 0.0 0.0 0.00 0.00 0.00 94 1011.6
20260510040903 9 0 0.0 0.0 0.00 0.00 0.00 94 1011.7
20260510040003 9 0 0.0 0.0 0.00 0.00 0.00 93 1011.7
20260510035403 9 0 0.0 0.0 0.00 0.00 0.00 94 1011.7
20260510034503 10 0 0.0 0.0 0.00 0.00 0.00 94 1011.6
20260510033603 10 0 0.0 0.0 0.00 0.00 0.00 94 1011.5
20260510032703 10 0 0.0 0.0 0.00 0.00 0.00 93 1011.5
20260510031803 10 0 0.0 0.0 0.00 0.00 0.00 93 1011.4
20260510031117 10 0 0.0 0.0 0.00 0.00 0.00 94 1011.3
20260510030003 10 0 0.0 0.0 0.00 0.00 0.00 93 1011.2
20260510025403 10 0 0.0 0.0 0.00 0.00 0.00 93 1011.2
20260510024503 10 0 0.0 0.0 0.00 0.00 0.00 93 1011.1
20260510023603 10 0 0.0 0.0 0.00 0.00 0.00 93 1011.1
20260510022703 10 0 0.0 0.0 0.00 0.00 0.00 93 1011.2
20260510021803 11 0 0.0 0.0 0.00 0.00 0.00 93 1011.2
20260510021117 11 0 0.0 0.0 0.00 0.00 0.00 93 1011.1
20260510020003 11 0 0.0 0.0 0.00 0.00 0.00 92 1011.0
20260510015403 11 0 0.0 0.0 0.00 0.00 0.00 91 1011.0
20260510014503 11 0 0.0 0.0 0.00 0.00 0.00 92 1011.0
20260510013603 11 0 0.0 0.0 0.00 0.00 0.00 92 1011.0
20260510012703 11 0 0.0 0.0 0.00 0.00 0.00 92 1011.0
20260510011803 12 0 0.0 0.0 0.00 0.00 0.00 92 1010.9
20260510011117 12 0 0.0 0.0 0.00 0.00 0.00 91 1010.7
20260510010003 12 0 0.0 0.0 0.00 0.00 0.00 92 1010.7
20260510005403 12 0 0.0 0.0 0.00 0.00 0.00 90 1010.7
20260510004503 12 0 0.0 0.0 0.00 0.00 0.00 90 1010.6
20260510003603 12 0 0.0 0.0 0.00 0.00 0.00 90 1010.5
20260510002703 12 0 0.0 0.0 0.00 0.00 0.00 89 1010.6
20260510001803 12 0 0.0 0.0 0.00 0.00 0.00 88 1010.6
20260510000903 12 0 0.0 0.0 0.00 0.00 0.00 88 1010.5
20260510000003 13 0 0.0 0.0 0.00 0.00 0.00 86 1010.6
20260509235403 13 0 0.0 0.0 0.00 0.00 0.00 86 1010.5
20260509234719 13 0 0.0 0.0 0.00 0.00 0.00 85 1010.5
20260509233603 13 0 0.0 0.0 0.00 0.00 0.00 85 1010.5
20260509232703 14 0 0.0 0.0 0.00 0.00 0.00 84 1010.5
20260509231803 14 0 0.0 0.0 0.00 0.00 0.00 82 1010.4
20260509230903 14 0 0.0 0.0 0.00 0.00 0.00 81 1010.4
20260509230219 15 0 0.0 0.0 0.00 0.00 0.00 80 1010.3
20260509225403 15 0 0.0 0.0 0.00 0.00 0.00 80 1010.3
20260509224503 15 0 0.0 0.0 0.00 0.00 0.00 80 1010.4
20260509223603 14 0 0.0 0.0 0.00 0.00 0.00 82 1010.5
20260509222703 14 0 0.0 0.0 0.00 0.00 0.00 82 1010.6
20260509221803 14 0 0.0 0.0 0.00 0.00 0.00 82 1010.5
20260509221116 14 0 0.0 0.0 0.00 0.00 0.00 82 1010.5
20260509220219 14 0 0.0 0.0 0.00 0.00 0.00 83 1010.6
20260509215403 14 0 0.0 0.0 0.00 0.00 0.00 84 1010.5
20260509214503 14 0 0.0 0.0 0.00 0.00 0.00 84 1010.7
20260509213817 14 0 0.0 0.0 0.00 0.00 0.00 84 1010.6
20260509212703 14 0 0.0 0.0 0.00 0.00 0.00 84 1010.6
20260509211803 14 0 0.0 0.0 0.00 0.00 0.00 83 1010.6
20260509210903 14 0 0.0 0.0 0.00 0.00 0.00 83 1010.6
20260509210003 15 0 0.0 0.0 0.00 0.00 0.00 82 1010.4
20260509205403 15 0 0.0 0.0 0.00 0.00 0.00 79 1010.4
20260509204503 15 0 0.0 0.0 0.00 0.00 0.00 77 1010.5
20260509203817 15 0 0.0 0.0 0.00 0.00 0.00 77 1010.6
20260509202703 16 0 0.0 0.0 0.00 0.00 0.00 77 1010.5
20260509201803 16 0 0.0 0.0 0.00 0.00 0.00 80 1010.5
20260509200903 15 0 0.0 0.0 0.00 0.00 0.00 80 1010.5
20260509200003 15 0 0.0 0.0 0.00 0.00 0.00 82 1010.5
20260509195403 15 0 0.0 0.0 0.00 0.00 0.00 82 1010.3
20260509194717 15 0 0.0 0.0 0.00 0.00 0.00 82 1010.4
20260509193603 14 0 0.0 0.0 0.00 0.00 0.00 81 1010.8
20260509192703 15 0 0.0 0.0 0.00 0.00 0.00 82 1010.9
20260509191803 15 0 0.0 0.0 0.00 0.00 0.00 80 1011.0
20260509190903 15 0 0.0 0.0 0.00 0.00 0.00 79 1011.1
20260509190003 14 0 0.0 0.0 0.00 0.00 0.00 79 1011.3
20260509185403 14 0 0.0 0.0 0.00 0.00 0.00 78 1011.4
20260509184503 15 0 0.0 0.0 0.00 0.00 0.00 78 1011.4
20260509183816 15 0 0.0 0.0 0.00 0.00 0.00 77 1011.4
20260509182703 15 0 0.0 0.0 0.00 0.00 0.00 75 1011.3
20260509181803 15 0 0.0 0.0 0.00 0.00 0.00 74 1011.4
20260509180903 15 0 0.0 0.0 0.00 0.00 0.00 73 1011.7